Back to catalog

CZ-6A DEB

AlivePO
NORAD 60753·DEBRIS·🇨🇳 China

Launched Aug 6, 2024 from Taiyuan Satellite Launch Center

Loading…

Next Passes (next 24 hours)

TLE

FreshSource: Space-Track

Epoch: Sep 14, 2026, 11:25 UTC

1 60753U 24140EC  26257.47589123  .00001063  00000-0  56920-3 0  9998
2 60753  89.0580 271.7190 0106529 278.5533  80.3592 14.09676110106285

Track CZ-6A DEB in real time with AllMySat

Download on the App Store